Погода в Хамби-Ирзях

Россия / Чеченская Республика     43°14′02″N   45°27′10″E
темп.,
°C
ветер,
м/с
пор.,
м/с
влажн.,
%
обл.,
%
осадки,
мм/ч
давл.,
гПа
погр.,
м
7 июля, чт
чт700:00+17в12740 0.0 101456
03:00+16с01820 0.0 101324
06:00+18с12740 0.0 1014231
09:00+25св22440 0.0 1012850
12:00+31всв33270 0.0 10101682
15:00+32св74270 0.0 10092345
18:00+28всв76340 0.0 1010939
21:00+20всв34632 0.0 1012125
8 июля, пт
пт800:00+17с11814 0.0 101157
03:00+16зсз11870 0.0 101126
06:00+18зсз11760 0.0 1012169
09:00+26св11480 0.0 1011870
12:00+31св23350 0.0 10091728
15:00+34в13280 0.0 10072296
18:00+32всв55250 0.0 10071095
21:00+24в2345100 0.0 100877
9 июля, сб
сб900:00+21зсз1161100 0.0 100823
03:00+19зсз1168100 0.0 100822
06:00+21з226292 0.0 1009164
09:00+29ссз214039 0.0 1008946
12:00+34св332818 0.0 10061916
15:00+35всв32248 0.0 10042688
18:00+34юв222629 0.1 10032201
21:00+24ююз115756 0.6 100522
10 июля, вс
вс1000:00+21з11750 0.6 100525
03:00+20зюз12760 0.6 100524
06:00+21з23690 0.0 1005118
09:00+30ссз11390 0.0 1004783
12:00+35св43270 0.0 10021820
15:00+38св33211 0.0 10002332
18:00+37всв43210 0.1 9991384
21:00+27юз1142100 0.1 100115
11 июля, пн
пн1100:00+26зсз3543100 0.0 1002107
03:00+22зюз2355100 0.0 100361
06:00+23зсз58634 0.0 1005311
09:00+29зсз56450 0.0 10061254
12:00+33зсз43351 0.0 10062125
15:00+35зсз533189 0.0 10052663
18:00+32з674095 0.0 10081035
21:00+27з495690 0.0 1011446